timestamp,wind_dir_avg,wind_spd_avg,wind_spd_max_dir,wind_spd_gust,battery_voltage,lat,long
2022-11-12 00:04:00+00:00,73.0,4.22,78.0,5.38,12.49,47.59359,-54.27349
2022-11-12 00:14:00+00:00,63.0,3.68,68.0,5.23,12.41,47.59359,-54.27349
2022-11-12 00:24:00+00:00,53.0,3.89,53.0,5.2,12.41,47.59359,-54.27349
2022-11-12 00:34:00+00:00,76.0,2.38,90.0,3.63,12.41,47.59359,-54.27349
2022-11-12 00:44:00+00:00,69.0,3.3,70.0,4.77,12.41,47.59359,-54.27349
2022-11-12 00:54:00+00:00,68.0,4.72,74.0,5.58,12.41,47.59359,-54.27349
2022-11-12 01:04:00+00:00,62.0,3.86,57.0,5.3,12.41,47.59359,-54.27349
2022-11-12 01:14:00+00:00,77.0,3.18,80.0,4.89,12.41,47.59359,-54.27349
2022-11-12 01:24:00+00:00,81.0,3.44,89.0,4.18,12.41,47.59359,-54.27349
2022-11-12 01:34:00+00:00,82.0,3.07,73.0,4.85,12.41,47.59359,-54.27349
2022-11-12 01:44:00+00:00,73.0,3.89,82.0,5.64,12.41,47.59359,-54.27349
2022-11-12 01:54:00+00:00,69.0,4.74,67.0,6.21,12.41,47.59359,-54.27349
2022-11-12 02:04:00+00:00,78.0,3.72,77.0,5.54,12.41,47.59359,-54.27349
2022-11-12 02:14:00+00:00,80.0,3.5,82.0,4.54,12.41,47.59359,-54.27349
2022-11-12 02:24:00+00:00,93.0,2.94,95.0,5.47,12.41,47.59359,-54.27349
2022-11-12 02:34:00+00:00,97.0,1.73,128.0,3.41,12.41,47.59359,-54.27349
2022-11-12 02:44:00+00:00,107.0,2.75,121.0,4.79,12.41,47.59359,-54.27349
2022-11-12 02:54:00+00:00,90.0,2.74,89.0,4.73,12.41,47.59359,-54.27349
2022-11-12 03:04:00+00:00,112.0,4.1,129.0,6.04,12.41,47.59359,-54.27349
2022-11-12 03:14:00+00:00,105.0,2.96,84.0,4.62,12.41,47.59359,-54.27349
2022-11-12 03:24:00+00:00,96.0,2.5,119.0,4.54,12.41,47.59359,-54.27349
2022-11-12 03:34:00+00:00,93.0,3.19,88.0,4.68,12.41,47.59359,-54.27349
2022-11-12 03:44:00+00:00,108.0,2.89,122.0,4.73,12.41,47.59359,-54.27349
2022-11-12 03:54:00+00:00,116.0,3.81,109.0,5.55,12.41,47.59359,-54.27349
2022-11-12 04:04:00+00:00,106.0,1.88,82.0,3.0,12.41,47.59359,-54.27349
2022-11-12 04:14:00+00:00,93.0,3.19,116.0,5.38,12.41,47.59359,-54.27349
2022-11-12 04:24:00+00:00,99.0,4.16,111.0,5.49,12.41,47.59359,-54.27349
2022-11-12 04:34:00+00:00,116.0,3.62,119.0,5.98,12.41,47.59359,-54.27349
2022-11-12 04:44:00+00:00,78.0,1.87,55.0,3.41,12.41,47.59359,-54.27349
2022-11-12 04:54:00+00:00,108.0,2.47,116.0,4.0,12.41,47.59359,-54.27349
2022-11-12 05:04:00+00:00,91.0,2.87,100.0,4.82,12.41,47.59359,-54.27349
2022-11-12 05:14:00+00:00,71.0,3.86,70.0,4.53,12.41,47.59359,-54.27349
2022-11-12 05:24:00+00:00,68.0,4.22,72.0,5.01,12.41,47.59359,-54.27349
2022-11-12 05:34:00+00:00,83.0,2.49,99.0,3.35,12.41,47.59359,-54.27349
2022-11-12 05:44:00+00:00,81.0,2.97,81.0,4.6,12.41,47.59359,-54.27349
2022-11-12 05:54:00+00:00,69.0,3.61,67.0,4.32,12.41,47.59359,-54.27349
2022-11-12 06:04:00+00:00,78.0,1.85,69.0,2.84,12.41,47.59359,-54.27349
2022-11-12 06:14:00+00:00,107.0,2.99,101.0,4.75,12.33,47.59359,-54.27349
2022-11-12 06:24:00+00:00,107.0,3.22,124.0,5.35,12.33,47.59359,-54.27349
2022-11-12 06:34:00+00:00,77.0,3.46,79.0,4.69,12.33,47.59359,-54.27349
2022-11-12 06:44:00+00:00,118.0,4.81,128.0,6.63,12.33,47.59359,-54.27349
2022-11-12 06:54:00+00:00,104.0,3.17,125.0,5.92,12.33,47.59359,-54.27349
2022-11-12 07:04:00+00:00,104.0,3.14,89.0,4.63,12.33,47.59359,-54.27349
2022-11-12 07:14:01+00:00,105.0,2.86,112.0,4.58,12.41,47.59359,-54.27349
2022-11-12 07:24:01+00:00,85.0,2.75,110.0,4.29,12.41,47.59359,-54.27349
2022-11-12 07:34:01+00:00,104.0,2.79,96.0,4.35,12.41,47.59359,-54.27349
2022-11-12 07:44:01+00:00,106.0,2.98,112.0,4.02,12.41,47.59359,-54.27349
2022-11-12 07:54:01+00:00,91.0,3.37,103.0,5.11,12.41,47.59359,-54.27349
2022-11-12 08:04:01+00:00,97.0,3.55,108.0,5.74,12.41,47.59359,-54.27349
2022-11-12 08:14:01+00:00,124.0,3.33,129.0,5.5,12.33,47.59359,-54.27349
2022-11-12 08:24:01+00:00,102.0,2.72,97.0,4.25,12.33,47.59359,-54.27349
2022-11-12 08:34:01+00:00,90.0,2.88,107.0,4.72,12.33,47.59359,-54.27349
2022-11-12 08:44:01+00:00,115.0,3.33,132.0,4.9,12.33,47.59359,-54.27349
2022-11-12 08:54:01+00:00,108.0,3.0,116.0,4.66,12.33,47.59359,-54.27349
2022-11-12 09:04:01+00:00,102.0,2.8,118.0,4.35,12.33,47.59359,-54.27349
2022-11-12 09:14:01+00:00,93.0,2.55,103.0,4.84,12.33,47.59359,-54.27349
2022-11-12 09:24:01+00:00,134.0,4.49,142.0,5.73,12.33,47.59359,-54.27349
2022-11-12 09:34:01+00:00,123.0,4.35,122.0,5.26,12.33,47.59359,-54.27349
2022-11-12 09:44:01+00:00,113.0,3.68,130.0,5.56,12.33,47.59359,-54.27349
2022-11-12 09:54:01+00:00,109.0,3.1,126.0,6.03,12.33,47.59359,-54.27349
2022-11-12 10:04:01+00:00,95.0,3.15,89.0,4.93,12.33,47.59359,-54.27349
2022-11-12 10:14:00+00:00,117.0,2.8,119.0,3.99,12.33,47.59359,-54.27349
2022-11-12 10:24:00+00:00,124.0,4.63,127.0,5.41,12.33,47.59359,-54.27349
2022-11-12 10:34:00+00:00,125.0,4.33,121.0,5.07,12.33,47.59359,-54.27349
2022-11-12 10:44:00+00:00,128.0,3.67,111.0,5.08,12.33,47.59359,-54.27349
2022-11-12 10:54:00+00:00,129.0,4.29,127.0,5.45,12.33,47.59359,-54.27349
2022-11-12 11:04:00+00:00,137.0,4.58,145.0,6.09,12.33,47.59359,-54.27349
2022-11-12 11:14:01+00:00,133.0,4.96,129.0,5.83,12.25,47.59359,-54.27349
2022-11-12 11:24:01+00:00,107.0,3.29,122.0,5.34,12.25,47.59359,-54.27349
2022-11-12 11:34:01+00:00,135.0,4.92,139.0,6.23,12.25,47.59359,-54.27349
2022-11-12 11:44:01+00:00,113.0,3.75,107.0,5.49,12.25,47.59359,-54.27349
2022-11-12 11:54:01+00:00,123.0,2.62,126.0,4.41,12.25,47.59359,-54.27349
2022-11-12 12:04:01+00:00,108.0,2.82,117.0,4.68,12.25,47.59359,-54.27349
2022-11-12 12:14:00+00:00,127.0,4.3,127.0,5.33,12.25,47.59359,-54.27349
2022-11-12 12:24:00+00:00,121.0,3.89,129.0,5.57,12.25,47.59359,-54.27349
2022-11-12 12:34:00+00:00,129.0,4.04,123.0,5.43,12.25,47.59359,-54.27349
2022-11-12 12:44:00+00:00,125.0,3.36,123.0,4.54,12.25,47.59359,-54.27349
2022-11-12 12:54:00+00:00,117.0,4.52,103.0,5.76,12.25,47.59359,-54.27349
2022-11-12 13:04:00+00:00,123.0,3.93,126.0,5.29,12.25,47.59359,-54.27349
2022-11-12 13:14:00+00:00,113.0,3.72,114.0,5.29,12.25,47.59359,-54.27349
2022-11-12 13:24:00+00:00,122.0,3.95,125.0,4.92,12.25,47.59359,-54.27349
2022-11-12 13:34:00+00:00,116.0,4.09,115.0,5.16,12.25,47.59359,-54.27349
2022-11-12 13:44:00+00:00,115.0,4.23,111.0,6.08,12.25,47.59359,-54.27349
2022-11-12 13:54:00+00:00,122.0,3.99,103.0,5.71,12.25,47.59359,-54.27349
2022-11-12 14:04:00+00:00,122.0,4.34,109.0,6.14,12.25,47.59359,-54.27349
2022-11-12 14:14:00+00:00,130.0,3.42,130.0,6.11,12.33,47.59359,-54.27349
2022-11-12 14:24:00+00:00,127.0,4.53,122.0,6.36,12.33,47.59359,-54.27349
2022-11-12 14:34:00+00:00,138.0,3.87,134.0,4.65,12.33,47.59359,-54.27349
2022-11-12 14:44:00+00:00,128.0,3.63,132.0,4.97,12.33,47.59359,-54.27349
2022-11-12 14:54:00+00:00,126.0,5.71,127.0,6.84,12.33,47.59359,-54.27349
2022-11-12 15:04:00+00:00,127.0,5.14,120.0,6.41,12.33,47.59359,-54.27349
2022-11-12 15:14:00+00:00,130.0,4.45,136.0,5.58,12.41,47.59359,-54.27349
2022-11-12 15:24:00+00:00,127.0,4.96,127.0,5.92,12.41,47.59359,-54.27349
2022-11-12 15:34:00+00:00,131.0,4.2,123.0,5.51,12.41,47.59359,-54.27349
2022-11-12 15:44:00+00:00,137.0,4.39,122.0,5.69,12.41,47.59359,-54.27349
2022-11-12 15:54:00+00:00,130.0,5.25,128.0,6.43,12.41,47.59359,-54.27349
2022-11-12 16:04:00+00:00,149.0,7.71,146.0,8.88,12.41,47.59359,-54.27349
2022-11-12 16:14:00+00:00,141.0,7.21,140.0,8.07,12.57,47.59359,-54.27349
2022-11-12 16:24:00+00:00,141.0,5.89,139.0,6.83,12.57,47.59359,-54.27349
2022-11-12 16:34:00+00:00,142.0,6.93,147.0,8.68,12.57,47.59359,-54.27349
2022-11-12 16:44:00+00:00,135.0,5.61,139.0,7.54,12.57,47.59359,-54.27349
2022-11-12 16:54:00+00:00,110.0,4.16,109.0,5.53,12.57,47.59359,-54.27349
2022-11-12 17:04:00+00:00,121.0,4.32,126.0,5.71,12.57,47.59359,-54.27349
2022-11-12 17:14:01+00:00,130.0,5.65,134.0,6.56,12.41,47.59359,-54.27349
2022-11-12 17:24:01+00:00,134.0,5.95,133.0,6.88,12.41,47.59359,-54.27349
2022-11-12 17:34:01+00:00,139.0,5.72,147.0,7.36,12.41,47.59359,-54.27349
2022-11-12 17:44:01+00:00,129.0,5.23,141.0,5.91,12.41,47.59359,-54.27349
2022-11-12 17:54:01+00:00,135.0,5.19,129.0,5.86,12.41,47.59359,-54.27349
2022-11-12 18:04:01+00:00,139.0,4.82,133.0,6.24,12.41,47.59359,-54.27349
2022-11-12 18:14:01+00:00,133.0,5.51,138.0,6.99,12.25,47.59359,-54.27349
2022-11-12 18:24:01+00:00,133.0,5.82,140.0,7.59,12.25,47.59359,-54.27349
2022-11-12 18:34:01+00:00,126.0,4.78,128.0,8.66,12.25,47.59359,-54.27349
2022-11-12 18:44:01+00:00,125.0,9.25,100.0,12.83,12.25,47.59359,-54.27349
2022-11-12 18:54:01+00:00,99.0,4.71,90.0,8.02,12.25,47.59359,-54.27349
2022-11-12 19:04:01+00:00,81.0,4.32,85.0,6.23,12.25,47.59359,-54.27349
2022-11-12 19:14:00+00:00,115.0,3.75,122.0,6.5,12.09,47.59359,-54.27349
2022-11-12 19:24:00+00:00,107.0,3.91,112.0,6.72,12.09,47.59359,-54.27349
2022-11-12 19:34:00+00:00,126.0,5.33,133.0,6.52,12.09,47.59359,-54.27349
2022-11-12 19:44:00+00:00,92.0,3.79,91.0,6.35,12.09,47.59359,-54.27349
2022-11-12 19:54:00+00:00,75.0,4.13,80.0,6.29,12.09,47.59359,-54.27349
2022-11-12 20:04:00+00:00,78.0,4.47,70.0,6.89,12.09,47.59359,-54.27349
2022-11-12 20:14:00+00:00,67.0,3.79,60.0,4.45,12.17,47.59359,-54.27349
2022-11-12 20:24:00+00:00,91.0,3.15,61.0,4.77,12.17,47.59359,-54.27349
2022-11-12 20:34:00+00:00,70.0,4.91,72.0,5.64,12.17,47.59359,-54.27349
2022-11-12 20:44:00+00:00,43.0,3.6,40.0,4.44,12.17,47.59359,-54.27349
2022-11-12 20:54:00+00:00,59.0,3.15,52.0,3.9,12.17,47.59359,-54.27349
2022-11-12 21:04:00+00:00,89.0,0.84,99.0,1.73,12.17,47.59359,-54.27349
2022-11-12 21:14:00+00:00,51.0,1.26,43.0,1.85,12.17,47.59359,-54.27349
2022-11-12 21:24:00+00:00,154.0,4.32,156.0,4.98,12.17,47.59359,-54.27349
2022-11-12 21:34:00+00:00,132.0,3.82,133.0,4.41,12.17,47.59359,-54.27349
2022-11-12 21:44:00+00:00,144.0,4.54,139.0,5.34,12.17,47.59359,-54.27349
2022-11-12 21:54:00+00:00,142.0,3.52,137.0,4.03,12.17,47.59359,-54.27349
2022-11-12 22:04:00+00:00,172.0,3.34,174.0,3.77,12.17,47.59359,-54.27349
2022-11-12 22:14:00+00:00,159.0,2.82,148.0,4.06,12.17,47.59359,-54.27349
2022-11-12 22:24:00+00:00,183.0,4.0,214.0,4.97,12.17,47.59359,-54.27349
2022-11-12 22:34:00+00:00,233.0,3.27,229.0,4.14,12.17,47.59359,-54.27349
2022-11-12 22:44:00+00:00,339.0,2.76,324.0,4.03,12.17,47.59359,-54.27349
2022-11-12 22:54:00+00:00,9.0,5.03,31.0,5.89,12.17,47.59359,-54.27349
2022-11-12 23:04:00+00:00,32.0,8.14,31.0,9.1,12.17,47.59359,-54.27349
2022-11-12 23:14:00+00:00,31.0,8.57,34.0,9.3,12.17,47.59359,-54.27349
2022-11-12 23:24:00+00:00,33.0,8.27,32.0,9.0,12.17,47.59359,-54.27349
2022-11-12 23:34:00+00:00,34.0,9.01,33.0,9.73,12.17,47.59359,-54.27349
2022-11-12 23:44:00+00:00,30.0,8.83,30.0,9.28,12.17,47.59359,-54.27349
2022-11-12 23:54:00+00:00,28.0,8.0,27.0,8.91,12.17,47.59359,-54.27349
